Date String (YYYY-MM-DD hh:mm:ss) UTC,Instrument flags,Ambient pressure (hPa),Sample flow (lpm),Bypass flow (lpm),Sample temperature (°C),Ambient temperature (°C),ASC tube jacket temperature (°C),LED temperature (°C),Box temperature (°C),Sample RH (%),Span deviation,Mass concentration (μg/m³),Mass concentration (μg/m³),Mass concentration (μg/m³)
DateTimeUTC,F1_M11,P_M11,Q1_M11,Q2_M11,T1_M11,T2_M11,T3_M11,T4_M11,T5_M11,U1_M11,ZSPAN_M11,X0_M11,X2_M11,X1_M11
2022-11-21 04:00:00,,0828.5,4.97,0.00,23.6,22.0,00.0,32.6,25.4,09.5,0000.0,0012.61,0009.26,0008.77
2022-11-21 04:01:00,,0828.5,5.01,0.00,23.6,22.0,00.0,32.6,25.3,09.4,0000.0,0012.63,0009.25,0008.76
2022-11-21 04:02:00,,0828.5,5.01,0.00,23.6,22.0,00.0,32.6,25.3,09.3,0000.0,0012.68,0009.27,0008.77
2022-11-21 04:03:00,,0828.5,4.98,0.00,23.6,22.0,00.0,32.6,25.4,09.2,0000.0,0012.72,0009.29,0008.78
2022-11-21 04:04:00,,0828.5,5.02,0.00,23.6,22.0,00.0,32.6,25.3,09.2,0000.0,0012.63,0009.27,0008.81
2022-11-21 04:05:00,,0828.5,4.99,0.00,23.5,22.0,00.0,32.6,25.3,09.1,0000.0,0012.68,0009.29,0008.84
2022-11-21 04:06:00,,0828.4,5.01,0.00,23.5,22.0,00.0,32.5,25.3,09.1,0000.0,0012.71,0009.32,0008.86
2022-11-21 04:07:00,,0828.6,5.00,0.00,23.5,22.0,00.0,32.5,25.2,09.1,0000.0,0013.18,0009.32,0008.86
2022-11-21 04:08:00,,0828.4,4.99,0.00,23.5,22.0,00.0,32.5,25.2,09.1,0000.0,0013.52,0009.32,0008.86
2022-11-21 04:09:00,,0828.5,5.01,0.00,23.5,22.0,00.0,32.5,25.2,09.0,0000.0,0013.31,0009.28,0008.82
2022-11-21 04:10:00,,0828.5,4.98,0.00,23.5,22.0,00.0,32.5,25.2,08.9,0000.0,0013.09,0009.19,0008.75
2022-11-21 04:11:00,,0828.5,5.02,0.00,23.5,22.0,00.0,32.5,25.3,08.7,0000.0,0013.03,0009.08,0008.64
2022-11-21 04:12:00,,0828.5,4.99,0.00,23.5,22.0,00.0,32.5,25.3,08.8,0000.0,0012.80,0009.00,0008.56
2022-11-21 04:13:00,,0828.4,4.99,0.00,23.5,22.0,00.0,32.5,25.3,08.9,0000.0,0012.53,0008.94,0008.53
2022-11-21 04:14:00,,0828.5,5.02,0.00,23.5,22.0,00.0,32.5,25.3,08.8,0000.5,0012.44,0008.91,0008.49
2022-11-21 04:15:00,,0828.5,4.99,0.00,23.5,21.9,00.0,32.5,25.2,08.7,0002.7,0012.41,0008.86,0008.43
2022-11-21 04:16:00,,0828.5,5.00,0.00,23.5,21.9,00.0,32.5,25.1,08.6,0005.7,0012.28,0008.76,0008.34
2022-11-21 04:17:00,,0828.5,5.00,0.00,23.5,21.9,00.0,32.5,25.1,08.5,0005.5,0012.16,0008.66,0008.26
2022-11-21 04:18:00,,0828.5,5.02,0.00,23.4,21.8,00.0,32.5,25.0,08.5,0005.0,0011.86,0008.60,0008.15
2022-11-21 04:19:00,,0828.7,4.98,0.00,23.4,21.8,00.0,32.5,25.1,08.5,0000.0,0011.44,0008.44,0008.01
2022-11-21 04:20:00,,0828.6,5.02,0.00,23.4,21.8,00.0,32.4,25.0,08.5,0000.0,0011.27,0008.28,0007.88
2022-11-21 04:21:00,,0828.6,5.00,0.00,23.4,21.8,00.0,32.4,25.0,08.5,0000.0,0011.19,0008.18,0007.77
2022-11-21 04:22:00,,0828.7,4.99,0.00,23.4,21.8,00.0,32.4,25.1,08.5,0000.0,0011.05,0008.11,0007.70
2022-11-21 04:23:00,,0828.9,5.01,0.00,23.4,21.8,00.0,32.4,25.0,08.5,0000.0,0010.87,0008.05,0007.64
2022-11-21 04:24:00,,0829.1,4.99,0.00,23.4,21.8,00.0,32.4,25.0,08.5,0000.0,0010.79,0007.96,0007.56
2022-11-21 04:25:00,,0828.9,4.99,0.00,23.4,21.8,00.0,32.4,25.0,08.4,0000.0,0010.73,0007.85,0007.45
2022-11-21 04:26:00,,0828.9,5.02,0.00,23.4,21.8,00.0,32.4,25.0,08.3,0000.0,0010.87,0007.71,0007.31
2022-11-21 04:27:00,,0828.9,4.99,0.00,23.3,21.7,00.0,32.4,25.0,08.1,0000.0,0010.74,0007.56,0007.17
2022-11-21 04:28:00,,0828.8,5.00,0.00,23.3,21.7,00.0,32.4,24.9,08.1,0000.0,0010.54,0007.39,0007.02
2022-11-21 04:29:00,,0828.7,5.00,0.00,23.3,21.6,00.0,32.3,24.9,08.2,0000.0,0010.32,0007.23,0006.91
2022-11-21 04:30:00,,0828.8,5.00,0.00,23.2,21.6,00.0,32.3,24.8,08.2,0000.0,0010.87,0007.13,0006.82
2022-11-21 04:31:00,,0828.9,4.99,0.00,23.2,21.6,00.0,32.3,24.8,08.0,0000.0,0011.07,0007.02,0006.70
2022-11-21 04:32:00,,0828.6,5.02,0.00,23.2,21.6,00.0,32.3,24.9,07.9,0000.0,0010.89,0006.82,0006.52
2022-11-21 04:33:00,,0828.6,4.99,0.00,23.2,21.5,00.0,32.3,24.9,07.8,0000.0,0010.75,0006.64,0006.34
2022-11-21 04:34:00,,0828.6,5.00,0.00,23.2,21.5,00.0,32.3,24.9,07.7,0000.0,0010.54,0006.41,0006.11
2022-11-21 04:35:00,,0828.6,5.00,0.00,23.2,21.5,00.0,32.2,24.8,07.7,0000.0,0010.27,0006.17,0005.89
2022-11-21 04:36:00,,0828.7,4.99,0.00,23.1,21.5,00.0,32.2,24.7,07.8,0000.0,0010.08,0005.99,0005.72
2022-11-21 04:37:00,,0828.6,4.99,0.00,23.1,21.5,00.0,32.2,24.8,07.9,0000.0,0009.69,0005.88,0005.62
2022-11-21 04:38:00,,0828.7,5.02,0.00,23.1,21.5,00.0,32.2,24.7,08.0,0000.0,0009.63,0005.87,0005.61
2022-11-21 04:39:00,,0828.8,4.99,0.00,23.1,21.4,00.0,32.2,24.7,08.1,0000.0,0009.74,0005.90,0005.62
2022-11-21 04:40:00,,0828.9,5.00,0.00,23.1,21.4,00.0,32.2,24.8,08.1,0000.0,0009.78,0005.90,0005.61
2022-11-21 04:41:00,,0828.6,5.01,0.00,23.1,21.4,00.0,32.1,24.8,08.1,0000.0,0008.96,0005.87,0005.58
2022-11-21 04:42:00,,0828.6,4.99,0.00,23.0,21.4,00.0,32.1,24.8,08.1,0000.0,0008.60,0005.82,0005.56
2022-11-21 04:43:00,,0828.7,4.99,0.00,23.0,21.4,00.0,32.1,24.8,08.0,0000.0,0008.41,0005.83,0005.57
2022-11-21 04:44:00,,0828.7,5.00,0.00,23.0,21.3,00.0,32.1,24.7,07.8,0000.0,0008.45,0005.84,0005.57
2022-11-21 04:45:00,,0828.8,5.01,0.00,23.0,21.3,00.0,32.1,24.7,07.7,0000.0,0008.33,0005.79,0005.56
2022-11-21 04:46:00,,0829.1,5.00,0.00,23.0,21.3,00.0,32.1,24.6,07.7,0000.0,0008.31,0005.77,0005.54
2022-11-21 04:47:00,,0829.2,5.00,0.00,22.9,21.3,00.0,32.0,24.5,07.7,0000.0,0008.38,0005.74,0005.49
2022-11-21 04:48:00,,0829.1,5.01,0.00,22.9,21.2,00.0,32.0,24.5,07.8,0000.0,0008.43,0005.68,0005.44
2022-11-21 04:49:00,,0829.2,5.00,0.00,22.9,21.2,00.0,32.0,24.5,07.8,0000.0,0008.39,0005.60,0005.35
2022-11-21 04:50:00,,0828.7,4.98,0.00,22.9,21.2,00.0,32.0,24.5,07.8,0000.0,0008.28,0005.51,0005.26
2022-11-21 04:51:00,,0828.7,5.01,0.00,22.9,21.2,00.0,32.0,24.5,07.8,0000.0,0008.20,0005.42,0005.18
2022-11-21 04:52:00,,0828.8,5.00,0.00,22.8,21.2,00.0,31.9,24.4,07.8,0000.0,0008.12,0005.35,0005.12
2022-11-21 04:53:00,,0828.7,5.00,0.00,22.8,21.2,00.0,31.9,24.5,07.9,0000.0,0008.08,0005.30,0005.07
2022-11-21 04:54:00,,0829.2,5.01,0.00,22.8,21.1,00.0,31.9,24.4,07.9,0000.0,0008.20,0005.32,0005.04
2022-11-21 04:55:00,,0829.4,5.00,0.00,22.8,21.1,00.0,31.9,24.5,07.9,0000.0,0008.26,0005.36,0005.07
2022-11-21 04:56:00,,0829.3,5.00,0.00,22.8,21.1,00.0,31.9,24.5,07.9,0000.0,0008.63,0005.43,0005.13
2022-11-21 04:57:00,,0829.2,5.01,0.00,22.8,21.2,00.0,31.9,24.5,07.9,0000.0,0008.77,0005.49,0005.19
2022-11-21 04:58:00,,0829.1,5.00,0.00,22.8,21.2,00.0,31.8,24.4,07.8,0000.0,0008.70,0005.53,0005.24
2022-11-21 04:59:00,,0828.8,5.00,0.00,22.8,21.2,00.0,31.8,24.4,07.8,0000.0,0008.56,0005.55,0005.28
